Regional Weather Roundup
Issued by NWS

Home | Current Version | Previous Version | Text Only | Print | Product List | Glossary Off
Versions: 1 2 3 4 5 6 7 8 9 10 11 12 13 14 15 16 17 18 19 20 21 22 23 24 25 26 27 28 29 30 31 32 33 34 35 36 37 38 39 40 41 42 43 44 45 46 47 48 49 50

484
ASUS43 KMKX 070800
RWRWI

WISCONSIN REGIONAL WEATHER ROUNDUP
NATIONAL WEATHER SERVICE MILWAUKEE/SULLIVAN WI
200 AM CST WED DEC 07 2016

NOTE: "FAIR" INDICATES FEW OR NO CLOUDS BELOW 12,000 FEET WITH NO
SIGNIFICANT WEATHER AND/OR OBSTRUCTIONS TO VISIBILITY.

WIZ001-002-006>008-014>016-023>028-070900-
NORTHWEST WISCONSIN

CITY           SKY/WX    TMP DP  RH WIND       PRES   REMARKS
SUPERIOR ARPT  CLOUDY    21  15  75 W20G25    29.66R WCI   6
ASHLAND        FLURRIES  21  14  74 SW20G26   29.66R WCI   6
HAYWARD        LGT SNOW  19  12  74 SW14G22   29.70R WCI   6
SIREN          LGT SNOW  19  13  79 W18G24    29.76R WCI   3
CUMBERLAND     FLURRIES  19  12  73 W23G31    29.76R WCI   2
RICE LAKE      FLURRIES  19  13  77 SW15G23   29.79R WCI   5
CHETEK         FLURRIES  18  14  82 W7        29.79S WCI   9
LADYSMITH      LGT SNOW  19  14  82 SW13G22   29.76S WCI   6
EAU CLAIRE     NOT AVBL
MENOMONIE      CLOUDY    19  13  78 SW16G23   29.85S WCI   4
NEW RICHMOND   CLOUDY    19  11  73 W17G24    29.82S WCI   4
OSCEOLA        CLOUDY    20  12  71 W18G28    29.86R WCI   5
$$

WIZ003>005-009-010-017-018-070900-
NORTH CENTRAL WISCONSIN

CITY           SKY/WX    TMP DP  RH WIND       PRES   REMARKS
MANITOWISH WTR FLURRIES  18  13  82 SW14G31   29.64R WCI   4
ARBOR VITAE    LGT SNOW  19  14  79 SW16G28   29.66R WCI   5
WOODRUFF       LGT SNOW  19  14  79 SW16G28   29.66R WCI   5
RHINELANDER    LGT SNOW  19  13  77 W20G29    29.69R WCI   3
EAGLE RIVER    LGT SNOW  19  12  76 SW21G28   29.65R WCI   2
LAND O LAKES   LGT SNOW  19  14  79 SW14G23   29.64R WCI   6
PHILLIPS       LGT SNOW  17  14  85 SW16      29.69R WCI   2
TOMAHAWK       LGT SNOW  17  12  79 SW7G18    29.72S WCI   8
MEDFORD        LGT SNOW  16  11  80 W15G23    29.75R WCI   1
MERRILL        LGT SNOW  18  13  80 W15G30    29.76S WCI   3
$$

WIZ029-030-035-036-043>047-070900-
CENTRAL WISCONSIN

CITY           SKY/WX    TMP DP  RH WIND       PRES   REMARKS
WAUSAU         FLURRIES  18  12  77 W18G29    29.78R WCI   2
MOSINEE        FLURRIES  19  16  86 W18G29    29.79R WCI   4
MARSHFIELD     CLOUDY    19  12  74 W18G25    29.79R WCI   4
STEVENS POINT  CLOUDY    19  13  74 W8G16     29.82R WCI   9
WAUPACA        PTCLDY    24  16  69 SW14      29.84R WCI  12
WAUTOMA        MOCLDY    22  15  75 W14       29.87R WCI   9
WISC RAPIDS    CLOUDY    20  13  74 W8G21     29.85R WCI  10
CAMP DOUGLAS   PTCLDY    19  12  73 W10       29.87S WCI   8
$$

WIZ011>013-019>022-031-037>040-048>050-070900-
NORTHEAST WISCONSIN

CITY           SKY/WX    TMP DP  RH WIND       PRES   REMARKS
ANTIGO         LGT SNOW  19  15  85 W16G24    29.73R WCI   4
SHAWANO        CLOUDY    27  17  65 W13G28    29.80R WCI  16
OCONTO         CLOUDY    27  16  63 W20       29.79R WCI  13
STURGEON BAY   CLOUDY    27  17  66 W23G29    29.78R WCI  12
GREEN BAY      FLURRIES  28  18  66 W14G30    29.82R WCI  17
MANITOWOC      NOT AVBL
APPLETON       CLOUDY    27  16  63 SW17G26   29.81R WCI  14
CLINTONVILLE   CLOUDY    27  16  63 SW14      29.81R WCI  15
OSHKOSH        PTCLDY    24  14  65 W15G22    29.85R WCI  11
$$

WIZ032>034-041-042-053>061-070900-
SOUTHWEST WISCONSIN

CITY           SKY/WX    TMP DP  RH WIND       PRES   REMARKS
LA CROSSE      CLOUDY    22  12  65 W13       29.96R WCI  10
SPARTA         FLURRIES  20  15  78 W12G18    29.90S WCI   9
VIROQUA        CLOUDY    19  13  79 W20G28    29.92R WCI   2
BOSCOBEL       CLOUDY    23  14  68 SW8       29.99R WCI  14
PRAIRIE DU CHI CLOUDY    22  12  67 W13G22    30.01R WCI   9
PLATTEVILLE    PTCLDY    21  16  79 W16       29.98R WCI   7
$$

WIZ056-057-062-063-064-067-068-070900-
SOUTH CENTRAL WISCONSIN

CITY           SKY/WX    TMP DP  RH WIND       PRES   REMARKS
REEDSBURG      CLOUDY    21  14  74 SW13G20   29.92R WCI   9
BARABOO/DELLS  PTCLDY    22  15  73 W14       29.89R WCI   9
LONE ROCK      MOCLDY    24  15  68 W13       29.95R WCI  12
MINERAL POINT  CLOUDY    23  18  80 W14       29.95R WCI  11
MADISON        MOCLDY    23  16  74 SW8G21    29.93R WCI  14
MIDDLETON      NOT AVBL
WATERTOWN      CLEAR     23  17  78 SW9       29.90F WCI  13
MONROE         CLEAR     23  18  80 SW20G25   29.95R WCI   8
JANESVILLE     CLEAR     27  18  69 SW12      29.96R WCI  16
$$

WIZ051-052-058>065-066-070>072-070900-
SOUTHEAST WISCONSIN

CITY           SKY/WX    TMP DP  RH WIND       PRES   REMARKS
MILWAUKEE      CLEAR     26  16  65 W17G24    29.91R WCI  13
WAUKESHA       CLEAR     23  16  74 SW10      29.91F WCI  12
MILWAUKEE/TIMM PTCLDY    27  16  63 W15G23    29.90F WCI  15
RACINE         CLEAR     25  16  68 W15G25    29.95R WCI  13
BURLINGTON     CLEAR     24  17  77 SW15      29.95R WCI  11
KENOSHA        CLEAR     25  17  72 W18G26    29.94R WCI  11
FOND DU LAC    CLEAR     24  14  65 SW8       29.87R WCI  15
SHEBOYGAN      CLEAR     25  16  68 W17       29.86R WCI  12
WEST BEND      MOCLDY    27  19  74 W15G21    29.88R WCI  15
JUNEAU         PTCLDY    22  16  76 SW14      29.90R WCI   9
$$

LSZ147-162-070900-
LAKE SUPERIOR

STATION/POSITION TIME  TEMP    WIND        PRES    WAVE
                       AIR SEA DIR/SP/G            HT/PER
                 (UTC) (F)     (DEG/KT/KT) (MB)    (FT/S)
DEVILS ISLAND    0700   26     230/ 28/ 34 1002.0R
PORT WING        0740   23     220/ 15/ 21 1004.1R
SAXON HARBOR     0730   22     220/ 14/ 20 1004.4R
$$

LMZ867-665-643>646-070900-
LAKE MICHIGAN

STATION/POSITION TIME  TEMP    WIND        PRES    WAVE
                       AIR SEA DIR/SP/G            HT/PER
                 (UTC) (F)     (DEG/KT/KT) (MB)    (FT/S)
CHAMBERS ISLAND  0740   28     210/  9/ 21 1007.5R
NORTHPORT PIER   0740   28     260/  7/ 27 1007.8R
SISTER BAY       0709   30     290/ 26/ 34   N/A
KEWAUNEE LAKESHO 0730   27     330/ 13/ 24 1009.2R
SHEBOYGAN LAKESH 0700   27     250/ 17/ 21 1011.2R
PORT WASHINGTON  0730   27     260/ 11/ 23 1012.9R
MILWAUKEE LAKESH 0730   27     270/ 17/ 25   N/A
KENOSHA   LAKESH 0700   27     260/ 15/ 23 1013.9
$$

TC  - TEMPERATURE IN CELSIUS
VSB - VISIBILITY IN STATUTE MILES
WCI - WIND CHILL INDEX
HX  - HEAT INDEX





USA.gov is the U.S. government's official web portal to all federal, state and local government web resources and services.